Terminal Aerodrome Forecast
Issued by NWS Blacksburg, VA

Current Version | Previous Version | Graphics & Text | Print | Product List | Glossary On
Versions: 1 2 3 4 5 6 7 8 9 10 11 12 13 14 15 16 17 18 19 20 21 22 23 24 25 26 27 28 29 30 31 32 33 34 35 36 37 38 39 40 41 42 43 44 45 46 47 48 49 50
000
FTUS41 KRNK 141105 AAB
TAFBLF
TAF AMD
KBLF 141105Z 1411/1506 09004KT 4SM BR SCT002 OVC030
      TEMPO 1411/1413 2SM BR OVC002
     FM141300 11004KT 6SM BR OVC009
     FM141600 13006KT P6SM OVC020
     FM142000 15007KT P6SM OVC030
     FM150000 21003KT 5SM BR OVC015=

USA.gov is the U.S. government's official web portal to all federal, state and local government web resources and services.